Wind_Speed
11 12 13 15 16 17 18 20 21 23 25 26 27 28 30 31 31 32 33 34 36 37 40 42 44 47 48 48 45 42 39 36 32 29 26 24 22 22 21 18 16 16 16 17 18 19 20 21 20 19 18 19 21 23 24 27 29 31 33 36 38 39 44 48 49 51 50 47 45 45 43 43 42 41 42 39 39 43 40 39 38 36 37 36 36 36 36 36
12 13 14 15 17 18 19 20 22 24 25 27 28 29 30 31 32 32 33 35 36 39 41 44 46 49 50 49 46 44 41 37 32 28 25 23 22 21 20 18 18 18 19 20 21 21 22 21 21 19 19 21 22 24 25 27 30 32 34 36 37 38 43 48 50 52 53 51 48 47 44 44 44 41 43 41 40 45 42 38 38 36 37 37 36 36 36 36
13 14 15 16 17 19 20 22 23 25 26 27 28 29 30 31 32 33 34 35 37 40 43 46 48 50 49 48 46 45 42 37 32 28 25 23 22 21 20 19 20 20 20 21 22 22 22 22 21 21 22 23 24 25 26 28 31 32 34 36 38 39 42 47 49 51 53 53 51 49 46 45 44 42 43 43 43 44 41 39 39 37 36 37 37 37 37 36
14 15 16 17 18 20 22 23 25 25 26 28 29 30 30 31 32 33 34 35 38 41 44 47 49 49 47 45 45 45 43 37 32 28 25 23 21 21 21 21 21 21 21 21 21 21 21 21 22 23 24 24 25 27 28 29 30 32 34 37 40 40 41 46 49 51 53 54 53 51 48 46 45 42 41 43 45 42 38 39 39 36 36 36 37 38 39 39
15 16 17 18 20 21 23 25 26 27 27 29 30 31 31 32 32 33 34 36 38 41 45 48 50 49 46 44 43 44 43 38 33 29 25 23 22 22 22 22 22 22 22 22 22 22 22 22 24 25 25 25 26 27 29 30 30 32 35 38 41 42 43 46 49 52 53 54 55 53 50 47 45 41 38 42 45 42 38 38 38 37 37 37 39 39 40 40
16 17 18 19 21 22 24 26 27 28 29 30 31 32 32 32 33 33 35 36 39 41 45 48 50 49 46 43 43 42 41 38 35 31 27 25 24 23 23 24 24 23 23 23 23 24 24 25 25 25 26 26 27 28 29 30 32 35 38 40 43 45 46 48 50 53 54 55 56 55 51 48 46 42 37 41 44 40 38 38 37 38 38 39 40 40 41 41
17 18 19 20 22 24 26 27 28 29 30 31 32 33 33 33 33 34 35 37 39 42 46 49 51 50 46 43 43 43 41 38 36 34 30 26 24 24 24 25 25 25 25 25 25 26 27 27 27 27 27 27 27 27 29 32 35 38 40 42 45 46 47 50 52 53 54 55 57 57 53 48 46 43 38 41 43 40 39 38 38 39 39 41 41 41 43 44
18 19 20 22 24 25 27 28 29 30 31 32 33 34 34 34 34 35 35 37 40 43 47 51 51 49 46 43 43 42 41 38 35 32 30 27 25 24 24 25 26 27 27 27 27 27 28 28 28 28 28 28 27 28 30 34 37 40 42 44 46 46 47 52 53 54 54 56 58 58 54 47 44 43 39 42 44 41 40 39 40 41 43 44 44 45 47 49
20 20 22 24 25 27 28 29 30 31 32 33 34 35 35 36 36 36 36 38 41 44 49 52 52 49 45 42 41 41 39 37 34 30 28 27 25 24 25 26 27 27 27 27 27 28 29 29 29 30 30 29 30 31 33 37 39 42 44 46 48 47 47 52 53 54 54 56 59 59 56 49 43 42 41 43 44 42 40 39 42 44 46 47 48 50 52 53
21 22 24 25 27 28 29 30 30 32 33 34 35 36 36 37 37 37 37 39 42 45 49 52 52 49 44 41 40 40 39 37 34 30 28 26 25 25 25 26 27 27 27 27 27 28 29 30 30 31 31 32 32 34 37 39 42 44 46 48 50 49 49 53 53 54 55 56 59 60 58 52 45 43 43 44 44 44 42 41 43 47 49 51 53 55 55 54
23 24 25 27 28 29 30 30 31 32 34 35 36 36 37 38 39 39 39 40 43 46 50 52 52 49 44 41 40 40 39 38 35 32 30 27 26 26 26 27 27 27 27 27 28 28 29 30 32 32 33 34 35 37 39 42 44 46 48 49 51 50 49 53 54 54 56 57 59 59 58 54 48 46 45 45 46 46 45 44 47 50 52 54 56 56 56 54
25 25 27 28 29 30 31 31 32 33 34 35 36 37 38 39 40 40 40 41 44 47 50 52 52 49 45 42 40 40 39 38 37 35 33 31 30 29 28 28 28 28 28 28 28 29 30 32 33 34 35 37 39 40 42 44 46 48 51 51 53 51 48 51 54 54 56 58 58 58 59 56 52 52 51 48 49 49 48 48 51 53 55 56 57 58 57 56
26 27 28 29 30 31 31 32 33 34 34 35 36 37 38 40 40 40 41 42 45 48 50 51 51 48 46 44 41 40 39 38 37 36 35 34 33 32 31 29 29 28 28 29 30 31 32 34 35 36 38 39 41 43 44 47 48 50 52 53 54 53 49 50 52 54 57 58 58 58 60 58 55 55 54 52 52 52 51 51 54 57 57 58 58 59 59 57
27 28 29 30 31 32 32 33 33 34 35 36 37 38 39 40 41 41 42 43 46 49 51 52 51 48 45 44 41 40 39 37 37 36 36 35 34 33 32 31 30 30 29 30 31 32 34 36 38 38 40 42 43 45 47 48 49 51 53 53 53 53 51 51 53 55 58 59 58 58 61 61 57 54 53 53 54 55 54 55 59 60 59 59 60 60 59 58
29 29 30 31 32 33 33 34 34 35 36 37 38 39 39 40 41 42 43 44 47 50 52 53 52 49 46 43 42 40 38 37 36 36 35 35 34 33 33 33 33 32 31 31 33 34 36 38 40 41 43 44 45 47 48 49 50 51 52 52 53 53 52 52 55 58 59 59 58 59 62 63 59 55 52 51 53 56 58 59 62 62 61 61 61 61 60 61
30 31 31 32 33 34 34 35 36 36 37 38 39 40 40 40 41 42 44 46 49 51 53 54 53 50 46 44 43 40 39 37 36 35 34 33 33 33 33 34 34 34 33 34 35 37 38 40 41 42 44 46 47 48 49 50 51 51 52 52 52 53 53 53 56 59 60 60 59 60 65 66 62 56 51 49 51 55 61 64 64 63 63 63 63 62 62 63
31 32 33 33 34 35 35 36 37 38 39 40 40 40 41 41 42 43 46 48 50 52 54 54 53 50 47 44 42 41 40 38 37 36 33 32 32 32 32 32 33 34 34 35 36 38 40 42 43 44 47 48 49 51 52 52 52 52 52 52 53 54 55 55 57 59 61 61 60 62 66 68 64 57 52 52 53 55 60 66 66 65 65 65 64 64 65 65
33 34 35 35 35 36 36 37 38 38 40 41 41 41 41 42 43 45 47 49 51 53 54 54 53 50 47 44 43 43 40 38 37 35 34 33 33 32 31 31 32 33 34 35 37 39 41 44 46 47 49 50 52 53 54 54 53 53 53 54 55 55 57 59 59 61 62 63 64 65 67 69 64 57 54 55 56 59 63 66 68 68 67 66 66 66 67 67
35 36 36 37 36 36 37 38 39 39 40 41 42 43 43 44 44 45 46 49 51 53 54 53 51 48 45 43 43 43 41 39 38 36 35 34 34 33 32 32 34 35 36 37 38 40 43 45 47 48 49 51 52 53 53 54 54 54 55 57 57 58 58 61 62 63 64 64 65 68 70 70 65 58 57 57 58 63 66 67 68 69 69 68 68 69 70 70
37 37 38 38 37 37 38 39 40 41 41 42 43 44 45 44 45 44 46 50 52 53 53 52 49 45 43 42 43 42 40 38 37 37 37 37 37 36 35 35 36 38 39 40 41 43 45 47 48 50 51 51 52 53 53 54 55 56 58 58 60 60 60 62 64 65 67 68 68 69 71 71 65 60 60 59 60 65 67 68 67 68 69 69 70 72 72 73
38 39 40 40 39 38 39 40 41 42 43 43 45 46 47 48 50 50 50 52 54 54 52 51 48 43 41 41 43 43 41 39 38 38 38 38 39 39 39 38 39 40 41 43 44 45 47 48 50 51 51 52 53 54 55 56 57 58 59 60 61 62 63 64 65 67 69 70 71 70 72 73 68 63 62 61 63 68 69 69 68 68 69 70 71 72 74 74
40 41 41 41 40 39 40 41 42 43 44 45 47 49 50 51 53 55 55 55 56 55 52 49 46 43 41 41 43 43 42 41 41 41 41 41 41 42 42 42 43 44 44 46 47 47 48 49 50 51 52 54 54 55 56 57 58 58 59 61 62 64 66 65 64 67 71 73 74 72 73 76 71 66 63 63 66 68 69 69 70 71 71 71 72 74 75 76
41 42 42 42 42 41 41 42 43 44 45 47 49 50 51 53 54 55 57 57 56 55 52 49 45 43 44 45 46 45 44 43 42 41 41 41 41 42 43 43 44 45 47 48 49 50 51 51 52 53 54 55 55 56 57 57 58 58 60 62 64 66 68 68 66 67 71 75 77 75 75 77 75 70 63 62 67 69 69 71 73 73 73 73 75 77 78 79
42 43 43 43 43 42 42 43 43 44 45 47 49 51 52 53 54 56 56 57 56 54 51 48 45 45 46 47 49 50 50 48 45 43 42 41 41 42 42 43 45 46 47 49 49 50 52 53 54 54 55 55 56 58 58 58 58 59 62 63 65 66 67 70 71 70 71 75 79 77 77 79 77 71 64 64 71 74 74 76 75 75 76 77 79 81 83 84
42 43 44 44 44 43 43 43 44 45 46 48 50 52 53 54 55 56 56 57 56 53 50 48 46 47 48 49 51 52 52 51 49 48 46 45 44 44 44 45 46 47 48 49 50 51 52 54 54 55 56 56 58 59 59 60 60 61 63 64 66 67 69 72 73 75 75 77 80 76 77 84 81 72 67 69 75 78 79 79 77 78 80 81 83 84 85 86
43 44 45 45 45 44 44 44 45 46 47 48 50 52 53 54 55 56 57 57 56 53 50 48 49 49 50 52 53 52 52 52 51 50 50 49 48 48 48 48 48 49 50 51 51 51 53 55 55 56 57 58 60 61 61 62 62 63 64 65 68 70 72 73 74 77 78 79 79 72 72 84 84 75 70 72 76 77 78 79 79 81 82 82 85 86 88 89
45 45 45 45 45 45 45 45 46 47 48 49 51 52 53 54 54 56 57 57 56 53 50 50 52 53 53 54 54 53 54 54 53 52 51 51 51 51 51 51 51 51 51 52 52 53 55 56 57 58 59 60 62 62 62 62 63 63 64 67 70 72 74 75 75 77 77 78 77 69 71 81 84 79 74 73 76 76 76 80 82 83 84 85 86 88 89 90
46 46 46 47 46 46 46 46 47 48 49 50 51 53 54 54 55 56 57 58 56 52 52 53 55 56 56 57 56 56 56 56 56 55 53 53 54 54 54 53 53 52 52 53 53 54 57 59 60 61 61 62 63 63 63 63 64 65 67 70 72 73 74 74 75 74 73 76 75 70 74 81 83 81 75 75 77 79 80 83 84 85 85 86 87 89 90 89
47 47 48 48 47 47 46 47 48 48 49 50 52 53 54 54 56 56 57 58 56 53 54 56 57 58 59 59 59 59 58 58 59 58 56 56 56 56 56 56 55 54 53 54 55 57 60 61 62 63 63 63 64 65 64 64 66 67 69 71 71 72 72 72 72 71 70 74 74 74 77 81 84 81 76 77 80 83 86 85 86 86 87 88 89 91 91 89
48 48 48 48 48 47 47 48 49 49 50 51 52 53 54 55 56 57 57 58 57 56 56 58 60 61 61 62 62 62 62 61 61 60 58 57 57 56 56 56 56 55 55 56 58 60 62 63 64 64 63 63 64 64 64 65 67 68 70 70 70 70 70 70 71 71 72 74 75 76 79 81 85 84 81 82 84 86 88 87 87 88 88 90 91 92 92 92
49 49 49 49 48 48 49 49 50 50 51 51 53 54 55 56 56 57 58 59 59 59 58 60 62 63 63 64 65 65 65 64 62 62 60 58 57 56 55 55 55 55 57 59 60 62 63 64 63 62 62 62 63 64 65 67 68 69 70 70 70 71 71 73 74 73 75 77 77 78 80 81 84 85 84 85 87 88 88 88 89 89 90 93 94 94 93 92
51 51 50 50 50 50 50 51 50 51 52 53 54 55 56 57 57 57 59 60 62 61 60 61 64 65 65 66 67 68 67 66 65 65 63 61 58 56 56 55 55 57 59 61 63 63 64 64 63 63 63 63 63 64 66 68 69 69 70 70 72 74 75 76 76 76 77 79 79 79 81 83 83 84 85 87 88 87 87 88 88 90 93 94 94 93 92 91
52 52 52 52 52 52 52 52 52 52 53 54 55 56 57 58 58 58 60 62 63 63 62 63 65 66 67 68 69 70 70 69 68 67 66 65 62 59 57 56 57 59 61 63 64 64 64 64 63 64 64 64 65 65 66 67 68 70 70 72 74 75 77 78 78 78 79 81 81 78 80 82 81 81 86 88 88 86 86 88 89 92 94 95 96 96 95 94
54 54 54 54 54 54 54 54 53 54 55 55 56 57 57 58 59 59 61 63 64 64 64 64 66 67 68 70 71 71 71 71 70 70 68 66 64 62 60 59 60 62 63 64 65 65 65 65 64 64 64 64 65 66 67 67 68 70 71 72 73 74 75 77 77 79 81 84 83 78 77 80 77 78 84 86 85 86 87 90 91 93 95 97 99 99 98 96
56 56 56 56 56 56 56 55 55 56 57 57 58 59 58 58 60 61 62 64 65 66 65 66 68 69 69 71 71 71 72 72 72 70 68 67 66 65 64 63 64 65 66 66 66 66 67 66 65 65 64 63 64 66 67 68 68 71 71 72 73 74 75 76 78 80 82 85 84 79 78 78 75 76 80 81 82 85 89 91 92 94 96 97 99 98 97 94
58 58 58 58 57 57 57 57 58 58 58 59 60 60 58 59 61 62 64 65 66 67 68 68 69 70 71 72 72 72 73 73 72 70 67 66 67 67 67 67 67 67 67 68 68 68 68 68 67 66 63 61 62 65 68 69 69 70 72 73 74 74 75 77 80 81 82 85 84 81 81 79 76 78 78 77 82 86 89 90 91 92 95 97 97 96 94 91
60 60 59 59 58 58 59 59 60 60 60 61 62 60 59 60 62 64 65 66 67 69 70 71 72 72 73 73 73 74 75 73 71 68 66 66 67 67 68 68 68 68 68 68 69 69 69 69 68 66 62 60 62 64 68 70 70 70 72 74 74 75 76 79 82 83 83 86 85 83 83 82 81 83 82 80 85 89 89 90 91 93 95 97 96 93 90 88
61 61 61 60 59 59 60 61 61 62 62 63 63 61 61 62 63 65 67 67 68 70 71 73 74 74 74 74 74 75 75 72 70 67 66 67 68 68 68 69 69 69 68 68 69 70 70 70 69 67 63 62 64 65 67 70 71 70 72 74 75 75 76 77 80 82 84 87 87 84 82 81 81 83 84 86 89 91 92 92 93 94 96 96 94 91 88 84
63 63 62 61 59 60 61 62 63 64 64 64 63 62 62 63 65 68 68 69 70 72 73 74 75 75 75 75 75 74 74 72 69 67 67 68 68 68 69 69 69 69 69 69 69 70 70 70 71 69 65 64 64 65 66 68 69 70 71 73 74 74 75 77 79 81 83 86 88 86 82 80 80 80 83 88 90 92 94 95 95 95 95 94 92 89 85 77
64 64 63 60 60 61 62 63 64 65 65 64 63 62 63 65 67 69 70 71 71 73 75 75 76 76 76 76 75 74 74 72 69 67 68 69 69 69 69 69 69 69 69 69 70 70 70 70 70 69 66 64 64 66 66 67 69 71 72 73 73 73 75 77 78 80 82 84 87 86 84 81 79 79 83 88 89 91 94 96 95 95 93 90 88 85 79 68
65 66 64 61 62 63 63 65 65 65 65 64 62 63 65 67 69 70 71 72 73 75 76 77 77 77 77 77 75 74 74 72 69 68 69 70 70 70 70 69 70 70 70 70 71 70 70 69 69 67 66 66 66 66 66 67 70 72 72 72 72 73 75 78 79 79 80 83 83 84 86 81 77 80 85 86 88 90 93 94 95 94 90 85 82 78 71 62
67 67 64 63 65 65 65 66 66 65 65 64 63 64 67 69 71 72 72 73 74 76 78 78 77 77 77 77 76 75 73 71 69 69 70 71 71 70 70 70 71 70 70 70 70 70 69 69 68 66 65 66 67 67 68 69 70 71 72 71 70 72 75 79 81 80 80 81 80 82 86 81 76 81 85 85 87 89 91 92 93 91 86 78 75 72 66 61
68 68 67 67 67 66 67 67 67 67 66 65 66 67 70 71 72 73 73 74 76 77 78 78 77 77 78 77 75 73 71 71 71 70 71 71 71 70 70 70 70 69 68 69 69 69 68 68 68 66 66 67 67 67 68 70 71 72 72 72 70 72 76 78 81 82 81 80 78 82 86 82 79 82 84 84 87 89 90 91 91 88 80 72 70 67 64 61
70 69 70 70 69 69 69 69 68 68 68 69 69 70 71 73 73 73 74 75 77 78 79 78 78 78 77 73 70 70 72 72 73 72 72 71 71 70 71 69 67 66 67 68 68 67 67 68 69 68 68 69 68 69 69 71 73 73 71 70 69 72 76 77 78 80 79 77 77 81 85 83 81 81 81 83 85 88 89 89 88 83 73 67 66 64 62 61
71 72 73 72 71 71 72 71 71 71 70 71 71 72 73 74 74 74 75 76 77 79 80 79 78 76 71 68 69 72 74 74 73 73 72 71 71 71 70 68 65 65 66 67 67 66 66 68 69 69 70 71 70 70 70 71 73 72 69 66 67 71 75 76 77 77 77 75 74 78 83 84 81 80 81 82 84 87 89 88 85 77 66 63 64 63 61 59
73 74 75 74 73 74 74 73 73 72 71 72 74 74 74 76 76 76 77 78 78 79 80 80 78 74 71 72 75 75 75 74 73 73 72 72 72 71 69 67 65 65 66 66 66 66 67 68 69 69 70 70 71 70 70 71 73 72 69 65 66 71 73 75 76 74 74 75 73 74 80 84 82 80 82 83 84 87 88 86 82 72 63 62 63 62 61 59
75 76 76 75 76 77 77 76 74 73 74 75 77 77 77 77 77 77 78 79 79 80 81 81 80 80 79 79 78 76 75 72 70 71 72 72 72 71 69 66 66 67 67 66 66 67 68 69 69 70 69 70 71 69 69 71 73 72 69 66 67 71 72 73 72 71 73 75 75 74 77 81 82 81 83 84 84 86 86 83 79 70 65 66 65 64 63 61
77 78 77 77 78 79 79 78 77 77 78 79 80 80 80 78 78 79 80 81 81 81 82 82 82 82 81 78 76 74 72 69 69 71 72 72 72 71 68 67 68 68 67 67 67 68 69 69 69 69 69 71 71 69 69 71 73 72 68 66 69 71 71 70 69 69 71 73 75 75 76 79 80 81 83 83 84 85 83 80 75 68 65 67 66 65 65 63
79 79 78 78 79 80 80 80 80 81 81 82 83 83 81 79 79 80 81 82 82 79 80 83 82 78 75 73 72 70 68 67 69 71 72 72 70 68 67 67 68 68 67 68 68 70 70 70 69 68 69 70 69 69 70 71 72 71 66 65 69 71 69 68 66 67 69 71 73 74 76 77 77 79 82 82 82 83 80 75 71 65 64 65 65 65 67 66
80 80 79 80 81 82 82 82 83 84 84 85 86 83 80 79 79 81 81 81 79 79 81 82 77 71 69 69 68 67 65 67 69 70 71 70 67 66 66 67 68 68 68 69 70 70 70 70 69 68 69 69 67 68 71 70 70 69 65 65 69 69 66 65 63 65 69 71 70 72 74 75 75 77 81 81 81 81 77 73 69 66 64 64 64 66 67 67
81 81 81 83 83 84 84 85 86 87 86 86 84 81 79 79 78 79 79 78 79 81 81 76 69 67 67 67 66 65 65 67 69 69 68 66 65 66 67 66 67 67 68 69 70 70 71 70 69 69 70 69 66 68 69 69 69 67 63 65 68 67 64 62 61 64 69 70 69 70 73 75 76 78 80 81 81 80 76 71 69 68 67 66 67 67 67 66
82 82 82 83 84 85 86 87 88 88 86 82 80 79 79 77 76 77 80 82 84 81 74 68 66 67 67 66 64 64 65 67 67 66 65 65 65 66 65 65 65 66 68 69 70 70 71 71 70 70 71 68 66 67 67 67 68 64 61 64 67 65 62 60 59 62 67 67 67 70 72 74 77 79 81 82 81 80 76 69 68 72 73 72 72 70 68 67
Wind_Direction
302 307 310 314 317 321 325 330 333 334 334 335 336 336 337 338 338 337 338 339 340 340 341 341 340 339 337 337 339 341 343 343 336 329 325 323 325 327 328 326 315 305 301 303 307 308 308 309 308 310 314 320 326 328 330 331 334 337 337 337 338 338 335 336 337 335 334 333 332 331 332 331 330 332 331 330 326 324 329 329 330 330 329 329 328 325 321 318
301 305 307 311 315 319 324 327 330 331 332 333 334 335 336 337 336 337 338 339 340 340 340 340 340 339 337 336 337 339 341 342 337 328 322 319 318 321 322 320 316 311 307 307 310 310 310 310 311 314 318 323 326 327 330 332 334 336 336 336 338 339 336 334 335 334 333 334 334 333 332 331 331 332 330 331 325 324 331 331 332 334 331 330 328 325 320 317
299 302 305 309 314 318 322 325 327 329 331 332 333 335 335 335 336 337 338 339 339 340 340 340 339 338 336 335 335 337 339 342 338 329 320 315 313 315 316 313 312 312 311 312 313 313 313 314 315 318 321 324 325 326 329 331 333 335 335 335 336 339 336 333 334 333 333 334 334 334 334 333 332 333 332 330 325 326 333 331 331 333 331 329 325 321 318 314
296 299 303 308 313 317 320 322 324 327 330 331 332 333 334 334 335 337 338 338 339 340 340 340 339 338 336 335 335 335 337 339 338 331 322 315 310 310 311 310 309 310 311 312 312 311 312 314 315 317 319 321 322 324 328 331 333 333 334 333 334 337 335 333 334 333 333 333 333 334 336 335 334 335 335 330 325 330 334 330 330 329 328 326 321 318 315 312
294 298 303 307 312 316 318 320 323 326 329 330 331 332 332 333 334 336 336 338 339 339 339 340 340 339 337 335 335 335 336 336 338 336 327 317 310 307 307 307 307 308 308 307 307 307 309 312 313 314 317 318 321 324 327 330 331 330 331 331 331 334 333 333 334 332 333 333 332 333 335 337 336 338 337 329 327 331 332 330 329 327 325 322 319 316 313 311
294 297 301 305 310 314 317 319 322 325 327 328 329 329 330 331 333 334 335 337 338 338 339 339 340 339 337 335 335 336 336 335 336 337 331 321 311 305 303 303 304 305 304 304 304 304 305 309 312 314 315 317 321 324 327 327 327 326 328 329 329 332 332 332 333 331 332 332 331 332 334 336 337 339 338 328 327 331 330 329 328 325 323 320 317 314 311 310
295 297 300 303 308 313 316 318 321 323 326 327 327 327 328 329 331 332 334 335 336 337 338 338 338 338 336 334 334 334 336 335 335 334 332 326 316 308 302 300 301 302 302 300 300 300 303 307 311 313 314 317 320 323 324 323 322 323 325 327 328 330 331 331 331 330 330 330 330 331 333 336 336 338 335 327 327 328 327 327 325 323 320 317 314 311 310 310
295 297 298 302 308 312 315 317 319 322 324 325 325 324 325 327 329 330 332 333 334 335 336 337 337 336 335 333 332 333 334 333 333 332 330 327 320 311 304 300 299 299 299 298 299 301 303 307 310 311 313 315 317 319 320 319 319 320 322 324 326 329 331 330 329 328 328 329 329 329 332 335 336 337 332 327 327 326 324 324 322 319 316 314 311 309 310 311
294 295 297 301 307 311 314 316 318 320 322 323 323 323 324 325 327 328 330 332 333 334 335 336 336 335 334 332 330 331 331 331 331 331 330 327 321 314 307 302 300 299 299 300 301 301 303 306 307 308 310 312 315 316 316 316 316 316 319 322 325 329 330 329 327 326 326 327 327 327 330 334 336 335 330 327 327 324 324 323 319 316 313 311 309 309 311 311
293 294 296 301 307 310 313 315 317 319 321 321 321 322 322 323 325 326 329 330 331 332 334 336 336 336 334 332 330 330 330 330 331 331 330 328 323 317 310 305 302 300 300 300 301 301 302 303 304 306 307 310 312 313 313 313 313 313 317 321 324 328 328 326 325 324 324 325 325 326 328 332 335 332 327 326 325 323 323 321 318 314 311 310 310 311 313 312
293 294 297 302 306 309 312 314 317 319 320 320 320 321 321 322 323 325 327 328 328 329 333 336 337 337 336 334 331 330 330 329 329 329 328 326 323 319 313 309 305 303 303 302 302 301 302 302 302 304 305 308 309 310 311 310 311 313 316 320 324 326 326 324 323 323 323 323 324 324 325 330 332 329 327 326 324 322 322 320 317 313 311 312 313 314 314 314
293 295 299 303 306 309 312 314 316 318 319 319 319 319 320 321 323 324 325 326 326 327 331 335 337 339 338 334 331 330 328 327 327 326 325 323 321 319 315 312 308 305 304 303 303 302 301 301 301 302 304 307 308 309 309 309 311 313 315 319 321 323 325 323 321 322 322 322 322 322 324 328 328 326 326 326 323 321 321 320 316 312 312 314 316 315 315 315
293 296 300 302 305 308 311 313 315 317 318 318 318 319 319 321 322 323 323 323 324 326 328 333 336 337 336 333 330 328 325 324 324 323 322 320 318 317 314 311 308 305 304 303 303 302 302 301 301 303 304 306 306 307 309 309 311 314 315 317 317 319 323 322 321 321 321 321 321 321 323 326 326 325 324 324 323 320 320 318 314 311 313 316 316 315 315 316
294 297 300 302 304 307 310 312 314 315 316 317 318 319 320 321 322 322 322 322 323 324 327 331 334 333 332 331 328 325 323 322 321 320 319 317 315 314 312 310 308 305 303 302 302 302 301 301 302 304 304 304 305 307 308 310 312 314 314 316 316 316 318 320 320 319 319 320 320 320 322 324 324 324 324 323 321 319 318 316 312 312 315 317 317 317 317 318
295 297 299 301 303 305 308 310 312 314 315 316 317 319 320 321 321 321 321 321 321 323 326 328 330 329 328 327 326 324 321 319 318 317 316 314 312 310 309 308 307 304 302 302 302 302 303 302 304 305 305 305 306 308 310 312 313 313 313 314 315 315 315 317 318 317 317 318 319 321 322 324 325 324 325 323 320 318 317 313 311 313 316 317 317 318 318 318
295 297 298 300 302 304 306 308 310 312 313 315 317 319 320 321 321 320 320 321 321 323 325 326 326 326 324 324 324 322 320 318 316 316 316 313 310 307 306 305 304 303 302 302 302 302 303 303 305 307 307 307 308 310 311 312 312 313 313 314 314 314 314 315 316 316 316 317 320 322 323 325 326 325 324 322 319 317 314 311 311 314 316 315 316 317 317 316
294 295 296 298 301 302 304 307 309 311 311 313 315 318 319 320 320 320 321 322 322 323 323 323 323 323 321 320 322 321 320 318 316 316 317 314 310 307 305 304 303 302 301 301 301 303 303 304 307 309 309 309 309 309 309 310 311 312 313 314 314 314 314 314 315 316 316 317 319 322 323 325 326 325 322 320 318 315 311 309 312 314 315 315 316 317 316 315
293 294 295 297 299 301 303 306 308 309 310 311 313 316 317 318 319 321 323 322 322 321 321 322 322 322 320 319 320 321 321 319 316 316 315 313 309 307 306 305 303 303 304 305 305 306 307 307 309 310 310 309 309 308 308 308 310 312 313 314 314 315 316 316 316 316 316 317 319 322 322 324 326 324 320 320 319 316 312 310 312 313 313 314 315 315 314 313
291 293 294 296 298 300 303 305 306 307 308 310 312 314 316 317 319 321 321 320 319 319 320 322 322 322 320 319 320 321 321 320 318 315 313 311 308 307 307 306 306 305 307 310 310 311 311 310 310 310 309 309 308 309 309 309 311 313 314 314 314 315 316 318 318 318 317 318 319 320 321 323 326 322 317 319 318 315 313 312 312 311 311 312 312 313 312 311
290 291 292 295 297 300 303 304 305 306 307 309 311 312 313 314 313 313 315 318 319 320 322 323 323 322 320 320 320 321 321 319 318 314 312 310 308 308 309 309 309 308 309 312 313 312 311 310 309 309 309 310 310 311 311 312 314 315 315 315 315 316 317 318 319 318 318 319 319 320 320 323 325 320 317 319 317 314 312 312 312 311 311 312 312 312 311 310
289 290 292 294 297 300 302 303 304 305 306 307 309 310 311 312 312 312 315 319 322 323 325 324 324 323 322 321 320 320 321 320 319 316 312 310 308 308 308 308 308 308 309 310 312 312 310 310 310 311 311 312 312 312 312 313 314 315 315 315 316 317 317 318 319 318 319 318 318 319 320 322 324 320 319 321 318 315 313 313 313 313 314 313 312 312 311 310
288 290 291 294 297 299 301 302 303 304 305 306 308 309 311 312 313 315 316 320 323 325 325 324 324 324 322 321 320 319 320 321 321 319 316 313 310 308 307 307 307 306 307 309 310 310 311 311 311 312 313 313 313 312 313 313 314 315 315 316 317 317 316 317 318 318 318 318 318 320 321 321 321 320 323 323 319 317 315 315 316 315 315 313 313 313 312 310
287 289 291 293 296 298 300 302 303 304 305 305 307 308 310 311 313 315 316 319 323 325 323 323 323 324 323 322 322 321 320 320 320 319 318 315 312 310 308 307 307 306 306 307 308 309 310 311 312 313 313 313 313 313 313 314 315 316 317 317 317 318 317 317 317 316 317 318 320 322 321 320 319 320 325 325 319 318 318 318 318 316 315 315 315 314 312 311
286 288 291 293 295 298 300 301 302 303 304 304 305 307 308 310 312 314 316 319 323 323 321 321 322 324 324 324 324 323 322 321 320 319 318 316 313 311 310 309 308 307 307 308 309 310 310 310 311 312 312 312 313 313 314 315 317 318 318 318 318 318 318 318 318 317 318 319 321 323 321 318 319 321 326 326 320 319 321 320 319 318 317 317 316 315 313 312
286 288 290 293 295 297 299 300 301 301 302 303 304 306 307 309 312 314 316 320 322 321 319 320 321 324 325 325 325 324 323 322 321 320 318 317 316 314 313 311 310 310 310 310 312 313 312 311 311 311 312 313 314 314 315 316 318 318 318 319 319 319 318 318 319 319 320 320 321 326 323 319 321 323 328 327 321 321 321 320 320 319 318 317 315 314 313 311
285 287 290 293 295 297 298 299 299 300 301 302 303 304 306 308 311 313 315 319 321 320 318 319 321 322 324 324 324 323 323 323 320 318 318 316 316 316 315 314 313 313 313 314 315 315 313 312 312 312 313 315 315 315 316 318 318 318 318 318 318 319 319 320 321 322 324 323 324 328 323 319 322 325 329 326 320 321 320 319 320 319 318 316 314 313 312 310
285 288 290 293 295 296 297 297 298 299 300 301 302 303 304 307 310 312 314 318 320 318 318 319 320 321 322 322 322 322 323 322 319 317 317 315 315 315 316 316 316 316 316 316 317 316 315 314 315 315 316 316 316 316 317 318 318 317 318 319 319 320 320 321 323 324 326 325 325 326 321 318 322 326 328 325 321 321 320 319 321 319 317 315 313 312 311 310
285 288 290 292 293 294 295 297 298 298 298 299 301 301 303 306 309 311 314 317 318 316 316 318 319 319 320 320 321 321 321 321 320 318 316 315 314 314 314 315 316 317 318 317 318 317 316 317 317 317 316 316 316 316 317 318 317 318 319 319 320 320 321 322 323 325 325 324 325 324 320 319 322 325 326 324 322 321 321 322 321 319 317 315 313 312 311 309
285 287 289 290 291 292 294 296 296 297 297 298 299 300 301 304 307 309 312 315 315 314 315 316 317 318 319 319 320 320 320 319 320 320 317 315 314 313 312 313 314 316 317 318 319 319 318 318 317 317 317 317 316 316 317 317 317 318 318 318 319 320 321 322 322 324 324 324 324 323 322 320 322 325 326 325 324 322 323 323 321 319 317 315 314 312 310 309
284 286 287 289 290 291 293 294 295 295 296 297 298 298 300 302 305 308 311 313 313 313 313 314 316 317 318 319 319 319 319 318 319 320 318 316 314 313 311 311 313 315 317 318 319 318 318 318 317 317 317 317 316 316 316 316 316 317 316 317 319 319 320 321 322 323 323 324 324 323 323 322 323 327 328 326 325 323 324 323 320 319 317 315 313 311 309 308
284 285 286 287 288 290 291 292 294 294 294 295 296 296 298 300 304 308 310 311 311 311 311 313 315 316 317 318 318 318 318 317 317 318 317 315 313 312 312 311 312 314 316 317 317 318 318 319 318 318 317 317 316 316 316 317 317 317 317 318 318 318 319 320 322 323 323 325 325 323 323 322 324 328 328 326 324 324 324 322 319 318 315 314 312 311 311 310
283 284 285 286 287 288 290 291 292 293 293 294 294 294 296 299 303 307 308 309 310 310 310 312 314 315 316 317 317 318 317 317 316 316 316 315 313 311 311 312 313 314 315 316 317 318 319 319 319 319 318 318 317 316 317 317 317 317 317 318 319 320 321 322 323 323 323 323 323 323 323 323 326 328 326 325 324 324 324 320 318 316 315 314 312 312 311 311
282 283 284 284 286 287 289 291 291 291 291 292 292 293 295 299 303 306 307 308 309 310 309 310 313 314 315 316 317 317 317 316 316 314 314 314 313 311 310 311 313 314 315 316 317 318 319 319 319 319 319 318 317 316 316 316 316 316 317 319 320 322 323 323 324 323 321 320 322 323 323 324 328 328 325 324 324 324 322 317 316 315 314 313 311 311 312 313
281 282 282 283 284 286 288 289 290 290 290 290 291 291 294 299 303 305 306 307 308 309 308 309 311 313 314 315 316 316 316 315 314 313 313 313 313 312 312 313 314 315 316 316 316 317 317 318 318 318 318 317 316 315 316 316 316 316 318 320 321 322 323 323 323 321 319 319 321 324 323 324 328 327 324 323 323 322 318 315 315 315 314 312 312 313 315 317
280 280 281 283 284 286 287 288 288 289 289 289 289 291 294 299 302 303 305 306 308 309 308 308 310 312 313 314 314 314 314 313 313 312 313 313 313 314 315 316 315 315 315 315 315 316 316 316 316 316 316 316 315 315 316 317 316 317 319 320 321 322 322 322 321 319 317 318 321 324 324 324 327 326 323 323 322 319 315 315 316 316 315 314 314 316 317 318
279 280 281 282 284 285 286 287 288 288 288 288 288 291 295 298 300 303 304 306 307 308 308 308 309 310 312 312 313 313 313 312 312 312 312 313 313 314 317 316 315 314 314 314 315 315 314 315 315 315 315 316 316 316 316 316 316 317 319 320 321 321 321 321 319 318 316 316 320 323 324 325 326 325 324 323 321 317 316 317 318 318 316 315 316 317 318 317
279 280 281 282 283 284 286 287 287 287 287 287 288 292 295 296 299 301 302 304 306 307 308 308 308 309 310 311 312 312 312 311 311 311 311 311 312 314 316 315 314 313 314 314 313 313 313 313 313 313 315 316 316 316 315 315 316 317 318 319 319 320 321 321 319 317 316 316 319 323 324 325 326 326 325 323 320 318 318 319 319 319 318 317 318 320 319 319
278 279 280 281 282 284 285 286 286 286 286 287 289 292 294 296 298 300 301 304 305 306 307 307 307 307 309 310 311 312 312 311 310 311 311 310 311 313 314 314 313 313 312 312 311 311 312 311 312 313 315 315 315 315 314 314 315 315 316 317 318 319 320 320 318 316 316 317 318 321 324 325 326 327 324 322 321 320 320 320 320 320 319 319 322 322 321 321
277 278 279 280 282 284 285 285 285 286 286 288 290 292 295 296 297 298 300 302 304 305 306 306 307 306 308 310 310 311 312 310 309 309 309 309 310 312 312 312 312 311 311 310 310 310 311 311 311 312 313 314 315 315 314 314 314 314 314 315 317 318 318 317 316 315 316 317 317 319 323 325 328 327 323 322 322 321 320 321 321 320 320 323 324 322 322 324
277 277 278 281 282 282 283 284 284 285 286 288 290 292 294 295 296 298 299 301 302 304 304 305 306 306 307 308 309 310 310 308 307 306 307 308 310 311 311 311 311 310 310 309 308 309 309 309 310 311 312 313 313 313 313 313 312 312 313 315 317 317 316 315 315 315 316 317 317 318 322 328 330 325 322 322 322 321 320 320 320 320 323 325 324 322 324 326
276 277 279 280 280 281 282 283 284 285 287 289 291 292 293 294 296 297 298 299 301 302 303 304 305 305 305 307 307 308 307 305 303 303 305 307 309 310 310 310 309 309 308 307 307 308 308 308 308 309 311 311 312 312 311 311 310 311 312 315 316 317 316 314 314 315 316 317 318 317 319 328 331 323 322 324 322 321 320 320 320 321 325 326 323 322 325 327
276 278 279 279 279 281 282 283 284 286 288 290 291 292 293 295 296 297 298 299 300 301 302 303 304 304 304 305 306 306 305 304 302 302 303 306 308 309 309 309 307 307 306 305 306 306 306 305 305 307 308 309 310 310 310 309 309 310 312 314 317 316 315 314 314 316 317 318 319 315 317 327 329 323 323 324 321 321 321 320 320 322 326 326 322 323 326 326
277 278 279 279 280 281 282 283 286 287 288 290 291 292 293 294 295 296 297 298 299 301 302 303 303 303 303 304 304 304 304 303 303 303 304 306 308 308 308 307 306 305 304 304 304 304 304 303 304 305 306 307 308 308 307 307 307 309 312 315 317 316 313 314 315 316 318 319 318 315 318 326 327 323 324 324 321 321 321 320 321 323 326 324 320 323 325 325
276 278 279 279 281 281 282 284 286 287 289 290 291 292 293 294 295 296 297 298 299 301 302 302 302 302 303 303 303 304 304 303 302 304 305 306 306 307 306 305 304 304 302 302 302 302 302 303 303 304 305 305 306 305 305 306 306 308 312 315 316 314 313 315 316 316 317 318 318 317 318 324 326 324 325 325 323 322 321 320 321 324 326 322 320 323 324 323
276 277 279 280 281 282 283 285 286 287 289 291 291 292 292 293 295 296 296 298 299 301 301 302 302 303 303 303 303 303 303 302 302 303 304 304 305 305 304 303 303 302 301 300 300 301 301 301 302 304 305 305 305 305 306 306 305 307 311 315 315 313 314 316 316 316 316 316 319 320 319 322 324 324 325 326 324 322 321 321 322 325 325 320 319 322 323 323
275 277 279 281 282 283 284 285 286 288 290 290 290 291 292 293 294 295 296 297 299 300 300 301 302 301 301 302 302 301 301 301 301 302 303 303 303 303 302 301 300 300 300 300 300 300 300 300 301 302 303 303 303 305 305 305 305 307 311 314 314 313 314 316 317 317 315 315 320 323 320 320 323 324 325 327 326 323 322 322 323 326 324 319 319 322 323 323
275 277 280 281 281 282 284 285 287 288 288 288 289 291 292 292 294 295 296 297 299 299 300 301 301 300 299 299 299 298 298 298 299 300 300 301 302 302 300 299 299 299 299 299 299 299 298 299 301 301 302 302 302 303 303 303 304 307 310 313 313 313 314 316 317 316 315 316 321 323 320 320 323 324 324 327 326 324 324 324 325 326 323 318 320 323 323 322
274 277 279 279 280 282 284 285 286 286 286 287 289 290 291 292 294 295 296 298 299 299 299 300 301 300 299 297 296 296 296 296 297 297 298 300 300 300 299 299 299 299 298 298 298 298 297 299 300 299 300 301 301 301 301 302 304 307 311 314 313 313 315 316 317 316 315 318 322 322 321 322 324 323 324 326 326 325 326 326 325 325 321 317 319 322 323 322
274 276 278 279 280 281 282 283 284 284 286 287 288 289 291 293 294 295 296 298 298 298 299 300 301 299 296 294 293 293 293 294 294 295 297 298 298 299 299 299 298 298 298 298 298 297 297 298 298 298 299 300 300 300 300 303 305 308 311 314 313 314 316 317 317 316 315 318 322 321 321 323 324 322 322 325 326 326 327 326 324 322 318 316 319 322 323 323
275 276 278 278 278 279 281 282 282 283 284 285 287 290 293 293 293 294 295 296 297 298 299 300 298 295 291 291 290 290 291 292 292 293 295 296 297 298 299 299 298 298 298 297 296 296 296 297 297 296 297 299 299 299 301 304 306 308 311 312 312 314 315 316 317 316 316 319 321 321 321 322 323 322 322 325 327 328 329 327 325 321 318 317 319 321 322 323
274 276 277 277 278 279 280 280 281 282 283 286 288 291 291 291 292 294 294 295 297 298 297 295 291 289 288 288 288 289 290 289 290 292 293 293 296 298 298 298 298 297 297 296 295 296 295 295 295 295 297 299 299 298 301 304 306 308 310 311 311 313 314 316 317 317 319 320 321 321 321 322 323 322 323 325 328 330 331 329 325 320 318 318 320 321 323 324
274 275 276 277 277 277 278 279 280 281 284 287 289 289 289 290 291 292 292 294 295 294 291 288 286 286 286 286 288 289 289 289 290 291 291 293 296 297 297 298 298 297 296 295 295 296 295 294 295 295 297 299 299 299 301 304 307 309 309 309 311 312 313 316 319 319 320 320 321 321 322 322 323 323 324 326 329 332 333 332 325 320 320 321 321 323 325 326
Height
5912 5912 5911 5911 5911 5911 5911 5911 5911 5910 5909 5908 5907 5906 5905 5903 5901 5900 5898 5896 5894 5892 5890 5888 5886 5884 5881 5879 5877 5876 5874 5872 5870 5868 5868 5867 5867 5866 5865 5865 5865 5864 5864 5864 5864 5862 5861 5860 5859 5859 5859 5858 5858 5856 5855 5853 5852 5851 5849 5848 5846 5843 5838 5834 5832 5829 5828 5828 5827 5826 5825 5824 5822 5821 5818 5816 5811 5809 5809 5806 5803 5801 5798 5798 5796 5794 5792 5790
5912 5911 5911 5910 5910 5910 5910 5910 5910 5910 5909 5908 5906 5905 5903 5901 5900 5898 5896 5895 5893 5891 5889 5887 5885 5883 5880 5877 5875 5874 5872 5870 5868 5866 5866 5865 5865 5864 5864 5863 5863 5863 5863 5862 5862 5860 5859 5858 5858 5858 5857 5857 5856 5855 5854 5852 5850 5849 5847 5845 5844 5842 5837 5833 5830 5826 5824 5823 5823 5822 5821 5820 5819 5818 5815 5813 5808 5805 5806 5803 5800 5798 5794 5792 5791 5790 5787 5786
5911 5910 5910 5910 5910 5909 5909 5909 5909 5909 5908 5907 5905 5904 5902 5900 5899 5897 5895 5893 5892 5890 5888 5886 5884 5881 5878 5875 5873 5871 5870 5868 5866 5865 5864 5863 5863 5863 5862 5862 5862 5861 5861 5860 5859 5858 5857 5857 5856 5856 5855 5855 5854 5853 5851 5850 5848 5847 5845 5843 5842 5841 5836 5832 5828 5825 5821 5819 5818 5818 5818 5816 5814 5814 5812 5809 5805 5802 5802 5799 5798 5796 5792 5789 5786 5784 5782 5780
5910 5909 5909 5909 5909 5908 5908 5908 5908 5908 5907 5905 5904 5902 5901 5899 5897 5896 5894 5893 5891 5889 5886 5884 5882 5880 5877 5874 5872 5870 5868 5866 5864 5863 5862 5862 5861 5861 5861 5860 5860 5859 5859 5859 5858 5857 5856 5855 5854 5854 5853 5852 5851 5850 5849 5847 5846 5845 5843 5840 5839 5838 5834 5830 5827 5823 5819 5816 5814 5814 5814 5813 5811 5810 5808 5804 5801 5800 5798 5795 5794 5792 5789 5786 5782 5779 5776 5774
5909 5908 5908 5908 5908 5908 5907 5907 5906 5906 5905 5904 5902 5901 5899 5898 5896 5894 5893 5891 5889 5887 5885 5883 5881 5878 5875 5873 5870 5868 5866 5864 5863 5861 5860 5859 5859 5859 5859 5858 5858 5858 5857 5857 5856 5855 5854 5853 5852 5851 5851 5850 5848 5847 5846 5845 5844 5842 5840 5838 5836 5835 5832 5828 5825 5821 5817 5814 5811 5810 5810 5810 5808 5807 5804 5799 5797 5796 5794 5791 5789 5787 5784 5781 5778 5774 5770 5768
5908 5907 5907 5907 5907 5907 5906 5905 5905 5904 5903 5902 5900 5899 5897 5896 5894 5893 5891 5890 5888 5885 5883 5881 5879 5876 5874 5871 5868 5867 5865 5862 5860 5859 5858 5857 5857 5857 5857 5856 5856 5855 5855 5854 5853 5852 5851 5851 5850 5849 5847 5847 5846 5844 5843 5842 5840 5839 5838 5836 5834 5832 5829 5825 5822 5819 5815 5811 5807 5806 5806 5806 5805 5804 5801 5795 5793 5792 5789 5787 5785 5781 5779 5775 5772 5768 5765 5763
5907 5906 5906 5906 5906 5905 5905 5904 5903 5902 5901 5900 5898 5897 5895 5894 5893 5891 5890 5888 5886 5884 5881 5879 5877 5874 5872 5869 5866 5864 5862 5860 5858 5857 5856 5856 5855 5855 5854 5854 5853 5853 5852 5852 5851 5850 5848 5848 5847 5846 5844 5844 5843 5842 5840 5839 5837 5836 5835 5834 5831 5829 5827 5823 5820 5816 5813 5809 5805 5802 5802 5802 5802 5801 5798 5793 5791 5789 5786 5783 5781 5777 5773 5770 5766 5762 5759 5758
5905 5905 5905 5905 5904 5904 5903 5902 5901 5900 5899 5898 5896 5895 5893 5892 5891 5890 5888 5886 5884 5882 5879 5877 5875 5873 5870 5867 5864 5862 5860 5859 5857 5855 5854 5854 5853 5852 5852 5851 5851 5850 5849 5849 5848 5847 5846 5845 5843 5842 5841 5841 5840 5839 5838 5836 5834 5833 5832 5831 5829 5826 5823 5820 5817 5814 5811 5808 5803 5799 5799 5799 5798 5797 5794 5790 5788 5786 5783 5780 5777 5773 5768 5764 5759 5756 5754 5753
5904 5904 5903 5903 5903 5902 5902 5900 5899 5898 5896 5895 5894 5892 5891 5889 5888 5888 5886 5884 5882 5880 5877 5875 5873 5870 5868 5866 5863 5860 5859 5857 5856 5854 5853 5852 5851 5850 5849 5849 5848 5847 5847 5846 5845 5844 5843 5842 5840 5839 5838 5837 5837 5836 5834 5833 5831 5830 5829 5828 5826 5823 5820 5817 5814 5811 5809 5806 5802 5797 5796 5795 5794 5793 5790 5787 5786 5783 5780 5776 5772 5768 5764 5759 5754 5751 5750 5748
5902 5902 5902 5901 5901 5900 5900 5898 5897 5896 5894 5893 5891 5890 5888 5887 5886 5885 5884 5882 5879 5877 5875 5873 5870 5868 5865 5863 5861 5858 5856 5855 5853 5852 5851 5850 5849 5847 5846 5846 5845 5844 5844 5843 5842 5841 5840 5838 5837 5836 5835 5834 5833 5832 5831 5829 5828 5827 5826 5824 5822 5819 5817 5815 5812 5809 5806 5803 5800 5796 5794 5794 5791 5789 5787 5784 5783 5780 5777 5772 5767 5763 5758 5753 5750 5748 5746 5742
5901 5900 5900 5899 5899 5898 5897 5896 5895 5894 5892 5891 5889 5888 5886 5885 5883 5882 5881 5879 5877 5875 5873 5871 5868 5865 5863 5861 5859 5856 5854 5852 5851 5850 5849 5847 5846 5845 5844 5843 5842 5841 5841 5840 5839 5838 5837 5835 5834 5832 5831 5830 5829 5828 5827 5826 5825 5823 5822 5820 5817 5814 5812 5811 5808 5805 5803 5800 5798 5794 5792 5794 5790 5784 5783 5781 5778 5776 5773 5767 5762 5757 5752 5748 5746 5744 5741 5737
5898 5898 5898 5897 5896 5895 5895 5894 5893 5891 5890 5888 5887 5886 5884 5882 5881 5880 5878 5877 5874 5873 5871 5869 5866 5863 5861 5859 5856 5854 5852 5850 5849 5847 5846 5844 5843 5842 5841 5840 5839 5838 5838 5837 5836 5834 5833 5831 5830 5829 5828 5827 5826 5825 5823 5822 5821 5819 5817 5815 5814 5811 5807 5806 5805 5801 5799 5797 5795 5791 5789 5791 5789 5782 5778 5776 5774 5771 5766 5761 5756 5750 5746 5745 5742 5738 5735 5732
5896 5896 5895 5894 5894 5893 5892 5891 5890 5889 5887 5886 5885 5884 5882 5880 5879 5877 5876 5874 5872 5870 5869 5867 5864 5861 5859 5857 5855 5853 5851 5849 5847 5845 5843 5842 5840 5839 5838 5837 5836 5835 5835 5834 5833 5831 5830 5828 5826 5826 5824 5823 5822 5821 5819 5818 5816 5814 5812 5811 5810 5809 5803 5800 5800 5798 5795 5793 5792 5789 5786 5787 5787 5782 5776 5770 5768 5766 5762 5756 5748 5744 5742 5740 5736 5733 5730 5727
5894 5893 5893 5892 5891 5890 5889 5888 5887 5886 5885 5884 5883 5881 5880 5878 5876 5875 5874 5872 5870 5868 5866 5864 5862 5860 5858 5855 5853 5851 5849 5847 5845 5843 5841 5840 5838 5836 5835 5834 5833 5832 5832 5831 5830 5828 5826 5825 5823 5823 5821 5820 5818 5817 5815 5813 5811 5809 5808 5807 5805 5806 5802 5795 5794 5794 5793 5790 5789 5788 5785 5785 5784 5780 5774 5766 5761 5758 5756 5750 5741 5738 5738 5734 5730 5727 5724 5721
5891 5891 5890 5889 5888 5887 5887 5885 5884 5883 5882 5881 5880 5879 5877 5876 5874 5873 5871 5870 5867 5865 5863 5861 5859 5857 5855 5853 5851 5849 5847 5845 5843 5841 5839 5837 5835 5834 5832 5831 5830 5829 5829 5828 5826 5825 5823 5822 5820 5819 5818 5816 5814 5812 5809 5807 5806 5804 5804 5803 5800 5799 5799 5794 5789 5789 5790 5787 5786 5784 5781 5782 5782 5777 5770 5762 5756 5752 5747 5743 5736 5733 5733 5728 5724 5721 5718 5716
5888 5888 5887 5887 5886 5885 5884 5883 5881 5880 5879 5878 5877 5876 5874 5873 5872 5870 5869 5867 5864 5862 5860 5859 5857 5855 5853 5851 5849 5847 5845 5843 5841 5839 5837 5835 5833 5831 5830 5829 5828 5826 5825 5824 5823 5822 5820 5818 5817 5815 5813 5811 5810 5807 5804 5802 5801 5800 5799 5799 5797 5794 5794 5793 5788 5784 5784 5783 5782 5780 5775 5775 5777 5774 5767 5758 5753 5750 5741 5734 5731 5729 5727 5723 5719 5716 5713 5711
5885 5885 5884 5884 5883 5882 5881 5880 5879 5877 5876 5875 5874 5873 5871 5870 5869 5868 5866 5863 5861 5860 5858 5856 5854 5852 5850 5848 5846 5844 5842 5840 5838 5837 5835 5833 5830 5829 5828 5826 5825 5824 5823 5821 5820 5818 5816 5814 5812 5810 5808 5806 5804 5802 5800 5798 5796 5796 5794 5793 5792 5790 5787 5787 5785 5781 5778 5776 5776 5776 5771 5768 5770 5767 5760 5752 5748 5747 5740 5731 5726 5723 5721 5717 5714 5711 5707 5705
5882 5881 5881 5880 5880 5879 5878 5877 5876 5875 5873 5872 5871 5870 5869 5868 5867 5865 5863 5861 5859 5858 5856 5854 5851 5849 5846 5844 5843 5841 5839 5837 5836 5834 5833 5830 5828 5826 5825 5823 5822 5820 5819 5818 5816 5814 5811 5808 5807 5804 5802 5800 5799 5797 5795 5793 5792 5791 5790 5788 5787 5786 5781 5777 5777 5776 5773 5771 5768 5768 5767 5765 5766 5762 5752 5745 5741 5738 5734 5728 5722 5718 5715 5712 5709 5705 5701 5698
5878 5878 5877 5877 5877 5876 5875 5874 5873 5872 5871 5869 5867 5867 5866 5865 5864 5864 5862 5860 5858 5856 5853 5851 5848 5845 5843 5841 5839 5837 5835 5834 5832 5830 5829 5827 5825 5823 5822 5820 5818 5817 5815 5813 5811 5809 5806 5803 5801 5799 5797 5795 5793 5791 5790 5788 5787 5785 5783 5782 5780 5780 5779 5771 5767 5766 5765 5766 5764 5761 5760 5759 5761 5755 5745 5741 5738 5731 5725 5723 5719 5713 5709 5706 5703 5699 5695 5691
5875 5875 5874 5874 5874 5873 5871 5870 5869 5868 5867 5866 5865 5863 5863 5863 5863 5864 5863 5859 5856 5853 5850 5846 5844 5842 5840 5837 5836 5834 5833 5831 5829 5827 5825 5823 5821 5819 5818 5816 5814 5812 5810 5808 5806 5804 5801 5798 5796 5793 5791 5789 5787 5786 5784 5782 5780 5779 5777 5775 5772 5772 5773 5769 5762 5758 5756 5756 5756 5756 5753 5754 5754 5746 5737 5733 5732 5727 5719 5717 5714 5710 5704 5700 5695 5690 5686 5683
5871 5871 5870 5870 5870 5870 5868 5867 5865 5864 5863 5862 5861 5860 5859 5858 5857 5857 5857 5854 5851 5848 5845 5842 5839 5838 5836 5834 5832 5830 5829 5827 5825 5822 5821 5819 5816 5815 5814 5812 5810 5808 5806 5804 5802 5799 5796 5793 5790 5788 5785 5783 5782 5780 5779 5776 5774 5772 5770 5768 5766 5764 5765 5765 5757 5751 5749 5746 5748 5748 5745 5749 5747 5737 5729 5724 5723 5720 5712 5708 5706 5702 5698 5692 5687 5683 5678 5674
5868 5867 5867 5867 5867 5866 5865 5864 5862 5860 5859 5858 5857 5855 5854 5853 5851 5849 5848 5848 5845 5843 5840 5837 5835 5833 5831 5830 5829 5828 5826 5824 5821 5818 5816 5814 5812 5810 5808 5807 5805 5802 5801 5798 5797 5794 5791 5788 5785 5782 5780 5778 5776 5775 5773 5771 5767 5765 5763 5761 5760 5757 5757 5761 5757 5748 5741 5736 5737 5739 5735 5740 5739 5727 5722 5714 5709 5710 5704 5699 5697 5691 5687 5683 5678 5674 5670 5665
5864 5864 5863 5863 5863 5863 5862 5860 5858 5856 5855 5853 5853 5851 5850 5848 5847 5845 5843 5842 5841 5838 5836 5833 5831 5829 5826 5824 5823 5823 5823 5821 5819 5816 5814 5811 5808 5806 5804 5802 5800 5798 5796 5794 5792 5790 5786 5783 5779 5777 5775 5773 5770 5769 5768 5765 5761 5757 5756 5754 5752 5750 5746 5748 5753 5749 5741 5728 5723 5726 5725 5731 5730 5720 5720 5708 5693 5697 5696 5690 5687 5680 5675 5672 5667 5662 5657 5653
5861 5860 5860 5859 5859 5859 5858 5856 5854 5853 5851 5850 5849 5847 5846 5844 5843 5841 5839 5838 5836 5834 5832 5830 5828 5825 5823 5820 5818 5817 5816 5815 5814 5812 5810 5808 5805 5803 5801 5799 5796 5794 5792 5790 5788 5785 5782 5778 5775 5772 5770 5768 5765 5762 5760 5758 5755 5750 5747 5746 5744 5743 5739 5735 5737 5739 5739 5728 5715 5712 5712 5721 5722 5711 5713 5704 5682 5680 5681 5677 5674 5668 5664 5660 5654 5649 5642 5637
5857 5856 5856 5855 5855 5855 5854 5852 5850 5849 5847 5846 5845 5843 5842 5841 5839 5837 5835 5834 5832 5830 5828 5826 5824 5822 5819 5817 5815 5813 5811 5809 5808 5806 5804 5802 5800 5798 5796 5794 5792 5789 5787 5785 5783 5780 5777 5773 5771 5768 5765 5763 5759 5756 5753 5750 5749 5744 5740 5738 5734 5734 5732 5728 5726 5722 5725 5723 5711 5701 5693 5699 5710 5704 5703 5696 5676 5670 5668 5664 5663 5657 5652 5648 5641 5637 5631 5625
5854 5853 5852 5852 5851 5851 5850 5848 5847 5845 5844 5842 5841 5839 5838 5837 5835 5833 5831 5829 5828 5825 5823 5822 5820 5818 5816 5814 5812 5810 5807 5805 5803 5801 5798 5796 5794 5792 5789 5788 5786 5783 5781 5779 5777 5774 5771 5767 5765 5762 5759 5756 5752 5748 5746 5743 5741 5738 5734 5731 5727 5725 5722 5719 5717 5712 5709 5710 5706 5698 5683 5677 5689 5694 5694 5688 5674 5668 5663 5655 5654 5648 5642 5636 5629 5624 5617 5611
5849 5848 5848 5847 5847 5846 5845 5844 5843 5841 5840 5838 5837 5835 5834 5833 5831 5829 5826 5825 5824 5821 5819 5817 5815 5814 5812 5810 5808 5806 5804 5801 5799 5797 5794 5791 5789 5787 5784 5782 5780 5778 5776 5772 5771 5769 5765 5762 5759 5756 5753 5750 5746 5742 5739 5736 5733 5731 5728 5724 5720 5717 5714 5709 5707 5705 5701 5700 5698 5696 5682 5670 5674 5678 5680 5678 5666 5661 5657 5648 5644 5637 5628 5621 5614 5608 5602 5595
5845 5844 5844 5843 5843 5842 5841 5840 5839 5837 5836 5834 5833 5831 5830 5829 5827 5825 5822 5821 5819 5817 5815 5813 5812 5810 5808 5806 5804 5802 5800 5797 5794 5791 5790 5787 5784 5782 5779 5777 5775 5773 5771 5768 5766 5763 5759 5756 5752 5750 5747 5743 5740 5735 5733 5729 5725 5723 5719 5716 5712 5709 5707 5702 5699 5700 5698 5694 5690 5688 5679 5666 5669 5672 5667 5665 5657 5647 5644 5638 5631 5623 5614 5607 5600 5593 5587 5580
5840 5840 5839 5839 5839 5838 5837 5836 5834 5833 5832 5830 5829 5827 5826 5824 5823 5822 5820 5817 5815 5814 5812 5810 5808 5806 5804 5802 5799 5798 5795 5792 5790 5786 5784 5781 5779 5777 5774 5772 5770 5768 5766 5763 5761 5757 5753 5751 5747 5744 5741 5737 5733 5728 5725 5722 5718 5716 5713 5711 5708 5703 5701 5697 5694 5695 5694 5691 5682 5676 5671 5658 5658 5665 5657 5652 5645 5632 5628 5624 5617 5610 5601 5593 5586 5578 5571 5565
5836 5835 5835 5834 5834 5833 5833 5831 5830 5829 5827 5826 5825 5823 5822 5820 5819 5817 5816 5813 5810 5809 5808 5805 5804 5802 5799 5797 5795 5793 5790 5788 5785 5782 5779 5777 5774 5773 5769 5767 5765 5762 5760 5758 5756 5752 5748 5746 5743 5740 5736 5732 5728 5722 5719 5716 5711 5709 5706 5705 5704 5700 5697 5693 5689 5688 5687 5687 5679 5668 5664 5651 5642 5645 5640 5633 5628 5619 5615 5609 5602 5596 5589 5581 5574 5566 5559 5552
5831 5830 5830 5830 5829 5829 5828 5827 5826 5825 5823 5822 5820 5818 5817 5816 5815 5814 5811 5808 5806 5805 5803 5801 5799 5797 5794 5792 5790 5788 5786 5783 5781 5778 5776 5773 5771 5768 5765 5763 5761 5758 5755 5752 5751 5748 5744 5741 5738 5735 5731 5727 5722 5717 5712 5708 5703 5701 5697 5695 5694 5693 5692 5688 5683 5680 5677 5678 5674 5663 5659 5651 5639 5634 5628 5620 5614 5609 5604 5595 5587 5582 5575 5568 5560 5553 5546 5538
5825 5825 5825 5824 5824 5823 5823 5822 5821 5820 5818 5817 5815 5814 5812 5811 5812 5811 5807 5804 5801 5799 5798 5796 5794 5792 5789 5787 5784 5782 5779 5777 5775 5772 5770 5767 5765 5763 5760 5758 5756 5752 5749 5746 5743 5741 5739 5736 5732 5728 5725 5720 5716 5712 5706 5700 5695 5693 5691 5686 5681 5678 5678 5677 5674 5672 5669 5671 5669 5659 5650 5646 5640 5630 5619 5611 5604 5601 5596 5586 5577 5570 5561 5553 5546 5540 5536 5529
5820 5819 5819 5819 5818 5818 5817 5817 5816 5815 5813 5811 5810 5808 5807 5806 5807 5806 5802 5799 5796 5794 5793 5791 5789 5787 5784 5781 5779 5776 5773 5770 5768 5765 5763 5760 5758 5756 5754 5751 5749 5746 5743 5739 5735 5733 5732 5730 5727 5723 5719 5714 5708 5705 5702 5697 5690 5685 5684 5679 5673 5667 5664 5664 5664 5660 5659 5663 5666 5660 5647 5640 5638 5628 5613 5606 5599 5595 5590 5579 5571 5565 5555 5546 5540 5533 5528 5521
5814 5814 5813 5813 5813 5812 5812 5812 5811 5809 5807 5806 5805 5803 5803 5803 5802 5801 5797 5794 5791 5789 5788 5786 5783 5781 5779 5776 5773 5771 5767 5763 5762 5759 5756 5754 5750 5748 5746 5744 5742 5739 5736 5733 5730 5727 5725 5724 5722 5718 5715 5711 5704 5698 5694 5691 5684 5678 5676 5673 5668 5664 5658 5654 5654 5649 5645 5648 5655 5658 5649 5639 5636 5628 5613 5605 5597 5589 5580 5571 5565 5559 5550 5541 5532 5525 5517 5510
5808 5808 5807 5807 5807 5807 5806 5806 5805 5803 5802 5801 5799 5798 5799 5799 5797 5795 5792 5789 5786 5784 5782 5780 5778 5775 5773 5771 5768 5766 5762 5758 5755 5753 5750 5747 5744 5741 5739 5737 5735 5732 5730 5727 5724 5722 5719 5717 5716 5713 5711 5708 5701 5694 5689 5684 5677 5670 5667 5664 5660 5657 5654 5649 5646 5641 5633 5631 5637 5644 5642 5637 5634 5627 5616 5607 5597 5586 5574 5566 5560 5551 5541 5532 5523 5515 5508 5500
5802 5802 5802 5802 5802 5801 5800 5800 5798 5797 5796 5795 5792 5793 5795 5794 5792 5789 5786 5783 5781 5778 5776 5774 5772 5770 5767 5765 5762 5759 5756 5752 5749 5746 5744 5741 5737 5735 5734 5732 5729 5726 5723 5721 5718 5716 5713 5711 5710 5708 5706 5703 5696 5688 5683 5679 5673 5666 5660 5657 5653 5650 5647 5640 5634 5631 5626 5621 5625 5629 5627 5626 5625 5618 5612 5607 5594 5581 5570 5561 5554 5545 5532 5523 5515 5507 5500 5490
5796 5796 5796 5796 5796 5796 5794 5793 5792 5790 5790 5788 5786 5789 5790 5789 5787 5783 5780 5778 5776 5773 5770 5768 5766 5764 5761 5759 5756 5753 5750 5746 5743 5740 5738 5735 5731 5730 5729 5726 5724 5721 5717 5715 5712 5710 5709 5706 5703 5701 5699 5697 5693 5686 5678 5673 5669 5663 5656 5651 5647 5644 5641 5633 5620 5614 5612 5609 5612 5618 5614 5609 5606 5597 5591 5592 5581 5566 5559 5550 5542 5534 5522 5511 5505 5498 5489 5479
5790 5790 5790 5790 5790 5790 5788 5786 5785 5784 5782 5781 5781 5784 5784 5783 5781 5777 5774 5773 5771 5768 5766 5763 5760 5758 5755 5753 5750 5747 5744 5741 5738 5735 5732 5728 5726 5725 5723 5720 5718 5715 5712 5709 5706 5703 5702 5700 5697 5696 5693 5689 5686 5682 5675 5669 5665 5661 5654 5648 5643 5639 5637 5633 5619 5604 5601 5598 5597 5606 5610 5603 5598 5589 5576 5571 5564 5549 5542 5536 5527 5520 5510 5500 5493 5486 5477 5470
5784 5783 5783 5785 5785 5783 5781 5780 5778 5777 5776 5775 5776 5778 5778 5777 5774 5771 5769 5767 5765 5763 5760 5758 5755 5752 5750 5748 5744 5742 5739 5735 5733 5730 5726 5722 5720 5719 5718 5714 5712 5710 5706 5703 5701 5698 5695 5692 5689 5688 5688 5683 5678 5674 5669 5663 5659 5655 5651 5646 5642 5637 5631 5628 5620 5604 5595 5591 5584 5589 5599 5597 5590 5583 5569 5558 5550 5537 5525 5519 5514 5507 5499 5492 5483 5474 5467 5462
5777 5775 5777 5780 5778 5776 5774 5773 5771 5770 5770 5770 5772 5772 5771 5770 5767 5765 5763 5761 5759 5757 5754 5752 5750 5746 5744 5742 5739 5737 5733 5730 5728 5724 5720 5717 5714 5713 5711 5709 5706 5703 5701 5697 5694 5692 5689 5686 5684 5681 5679 5676 5672 5668 5664 5658 5652 5647 5644 5640 5637 5634 5627 5621 5616 5606 5594 5586 5576 5571 5581 5588 5581 5571 5562 5550 5539 5529 5516 5507 5502 5496 5491 5486 5476 5466 5460 5455
5769 5767 5771 5773 5770 5768 5768 5766 5765 5765 5764 5765 5767 5766 5764 5762 5761 5759 5757 5755 5753 5751 5747 5746 5744 5741 5738 5735 5733 5731 5727 5724 5722 5718 5715 5712 5709 5706 5705 5702 5699 5696 5694 5690 5687 5686 5682 5680 5679 5678 5674 5668 5664 5661 5657 5653 5648 5641 5637 5635 5631 5625 5618 5610 5606 5605 5598 5587 5574 5562 5564 5577 5575 5560 5552 5544 5530 5520 5511 5500 5492 5488 5485 5480 5470 5462 5455 5450
5760 5761 5765 5764 5761 5761 5760 5758 5758 5759 5759 5760 5760 5759 5757 5755 5754 5752 5751 5749 5746 5744 5741 5739 5738 5735 5732 5729 5727 5725 5721 5717 5715 5712 5709 5706 5704 5700 5698 5695 5692 5689 5687 5683 5680 5678 5675 5672 5671 5673 5670 5663 5659 5655 5650 5645 5641 5636 5632 5630 5627 5620 5610 5600 5594 5593 5593 5587 5576 5561 5555 5567 5567 5551 5541 5536 5523 5513 5506 5496 5486 5482 5480 5473 5464 5457 5451 5446
5753 5754 5756 5755 5754 5754 5752 5751 5752 5752 5752 5753 5753 5752 5749 5747 5746 5745 5745 5743 5739 5737 5735 5732 5730 5727 5724 5722 5720 5717 5713 5709 5707 5705 5702 5700 5697 5694 5691 5689 5686 5683 5680 5677 5674 5671 5668 5664 5662 5665 5665 5659 5654 5650 5645 5639 5634 5631 5628 5623 5619 5612 5603 5596 5587 5580 5580 5580 5571 5556 5548 5556 5557 5544 5535 5528 5516 5506 5499 5490 5482 5476 5474 5467 5458 5452 5446 5440
5746 5746 5746 5746 5746 5746 5745 5745 5746 5745 5746 5746 5745 5744 5742 5739 5739 5738 5737 5736 5732 5730 5727 5724 5722 5719 5717 5715 5713 5710 5706 5701 5699 5698 5696 5693 5690 5687 5684 5681 5679 5677 5673 5670 5667 5665 5662 5657 5653 5654 5655 5652 5649 5644 5639 5635 5628 5625 5626 5621 5613 5603 5595 5591 5584 5574 5569 5571 5566 5550 5539 5545 5547 5538 5531 5524 5511 5501 5493 5485 5478 5472 5467 5459 5451 5447 5442 5435
5738 5737 5736 5737 5739 5738 5737 5738 5738 5738 5739 5738 5736 5736 5734 5731 5731 5731 5729 5728 5725 5722 5719 5716 5714 5712 5709 5708 5706 5702 5699 5695 5691 5690 5688 5686 5683 5680 5677 5674 5672 5669 5666 5663 5660 5658 5656 5652 5647 5644 5643 5640 5638 5636 5631 5625 5619 5617 5621 5620 5611 5599 5589 5584 5579 5571 5562 5563 5564 5550 5533 5533 5537 5531 5525 5520 5508 5495 5486 5478 5472 5468 5462 5452 5444 5441 5436 5430
5730 5728 5727 5729 5730 5729 5729 5731 5731 5730 5732 5730 5726 5726 5726 5722 5723 5723 5721 5720 5718 5715 5711 5708 5706 5705 5703 5701 5698 5694 5691 5688 5685 5682 5681 5678 5676 5672 5669 5667 5664 5662 5659 5656 5654 5651 5648 5646 5643 5640 5636 5631 5627 5627 5623 5614 5609 5608 5612 5615 5608 5596 5587 5580 5573 5565 5555 5552 5558 5553 5533 5523 5525 5521 5515 5510 5501 5489 5478 5469 5462 5459 5453 5444 5439 5435 5430 5424
5721 5720 5722 5722 5720 5719 5720 5722 5724 5723 5723 5720 5716 5717 5717 5715 5715 5714 5712 5711 5710 5707 5703 5700 5699 5697 5695 5693 5689 5686 5683 5681 5679 5675 5672 5670 5667 5664 5662 5659 5656 5654 5652 5650 5648 5644 5641 5640 5638 5634 5631 5626 5621 5619 5615 5607 5600 5598 5601 5604 5601 5593 5585 5578 5569 5559 5549 5543 5546 5547 5535 5521 5515 5511 5504 5499 5491 5480 5471 5460 5452 5448 5442 5433 5430 5428 5422 5418
5712 5712 5716 5715 5711 5711 5712 5714 5715 5713 5711 5710 5709 5708 5707 5707 5707 5706 5704 5702 5701 5698 5694 5692 5691 5689 5686 5684 5680 5677 5676 5673 5671 5668 5664 5661 5659 5656 5654 5651 5648 5646 5644 5642 5640 5637 5634 5634 5633 5628 5625 5621 5615 5611 5607 5601 5594 5589 5590 5592 5590 5584 5580 5574 5566 5554 5544 5539 5536 5533 5528 5518 5510 5502 5496 5491 5484 5473 5464 5454 5446 5442 5435 5426 5424 5420 5415 5411
5705 5705 5708 5707 5704 5704 5704 5705 5705 5702 5702 5702 5699 5698 5699 5700 5699 5697 5695 5693 5691 5690 5687 5683 5683 5681 5677 5675 5672 5669 5669 5666 5662 5660 5657 5653 5651 5649 5646 5643 5640 5638 5636 5634 5632 5629 5627 5627 5625 5622 5619 5615 5609 5602 5597 5595 5589 5581 5581 5582 5579 5575 5571 5566 5560 5550 5539 5536 5534 5525 5519 5515 5508 5497 5488 5485 5480 5470 5462 5452 5443 5438 5430 5422 5419 5414 5408 5405
5698 5699 5700 5697 5694 5696 5696 5696 5695 5693 5693 5692 5689 5691 5693 5692 5690 5689 5687 5685 5682 5681 5679 5676 5675 5673 5668 5667 5665 5663 5662 5659 5654 5652 5650 5646 5644 5642 5639 5636 5632 5630 5629 5625 5623 5621 5618 5618 5617 5614 5612 5610 5604 5595 5588 5587 5583 5575 5573 5574 5571 5568 5565 5561 5555 5545 5534 5530 5530 5523 5513 5509 5505 5495 5485 5481 5475 5467 5459 5447 5436 5430 5424 5417 5413 5408 5402 5398
5691 5691 5691 5686 5684 5687 5688 5686 5686 5684 5683 5682 5682 5685 5685 5682 5683 5681 5677 5676 5676 5673 5671 5669 5667 5665 5661 5659 5658 5656 5654 5650 5647 5645 5643 5639 5638 5635 5631 5629 5626 5623 5621 5617 5614 5613 5609 5607 5607 5604 5603 5604 5599 5589 5583 5580 5576 5569 5564 5563 5563 5560 5558 5556 5549 5540 5529 5522 5520 5515 5507 5501 5496 5488 5479 5474 5469 5461 5453 5441 5428 5420 5416 5411 5405 5400 5396 5392
5685 5682 5683 5678 5673 5676 5678 5676 5676 5674 5673 5676 5677 5677 5675 5674 5676 5673 5667 5667 5669 5666 5664 5662 5659 5656 5655 5653 5652 5649 5644 5642 5640 5638 5635 5633 5631 5627 5624 5622 5619 5615 5612 5609 5606 5604 5601 5598 5598 5594 5594 5596 5591 5582 5578 5574 5570 5564 5556 5553 5553 5552 5550 5549 5544 5536 5526 5519 5512 5507 5500 5494 5487 5478 5468 5463 5459 5454 5447 5437 5422 5409 5404 5402 5397 5391 5389 5385